AirNav   Air Wisconsin pilot careers
 
 841 users online  

T37 Goldthwaite Municipal Airport
Goldthwaite, Texas, USA

GOING TO GOLDTHWAITE?


FAA INFORMATION EFFECTIVE 25 APRIL 2019

Location

FAA Identifier: T37
Lat/Long: 31-25-44.6400N / 098-36-30.0800W
31-25.744000N / 098-36.501333W
31.4290667 / -98.6083556
(estimated)
Elevation: 1457 ft. / 444 m (estimated)
From city: 2 miles SW of GOLDTHWAITE, TX
Time zone: UTC -5 (UTC -6 during Standard Time)
Zip code: 76844

Airport Operations

Airport use: Open to the public
Activation date: 08/2010
Control tower: no
ARTCC: FORT WORTH CENTER
FSS: FORT WORTH FLIGHT SERVICE STATION
NOTAMs facility: FTW (NOTAM-D service available)
Attendance: 0800-1700
Wind indicator: lighted
Segmented circle: yes

Airport Communications

CTAF: 122.9
WX AWOS-3 at 81R (13 nm SW): PHONE 325-372-6027

Nearby radio navigation aids

VOR radial/distance  VOR name  Freq  Var
AGJr296/28.0GOOCH SPRINGS VORTAC112.5005E
BWDr139/33.0BROWNWOOD VOR/DME108.6008E
LLOr006/39.1LLANO VORTAC108.2008E

 
NDB name  Hdg/Dist  Freq  Var  ID
BRADY061/39.638007EBBD -... -... -..

Airport Services

Parking: hangars

Runway Information

Runway 1/19

Dimensions: 3200 x 60 ft. / 975 x 18 m
Surface: asphalt, in good condition
Weight bearing capacity: 
Single wheel: 12.5
RUNWAY 1  RUNWAY 19
Latitude: 31-25.485000N31-26.002833N
Longitude: 098-36.560833W098-36.442000W
Elevation: 1445.0 ft.1457.0 ft.
Traffic pattern: leftleft
Markings: basic, in fair conditionbasic, in fair condition
Obstructions: 3 ft. fence, 200 ft. from runway, 91 ft. left of centerline
3 FT FENCE 0-200 FT FM THLD 91 FT L.
50 ft. tree, 1133 ft. from runway, 32 ft. left of centerline, 18:1 slope to clear

Airport Ownership and Management from official FAA records

Ownership: Publicly-owned
Owner: CITY OF GOLDTHWAITE
PO BOX 450
GOLDTHWAITE, TX 76844-0450
Phone 325-648-3186
Manager: ROBERT LINDSEY
PO BOX 450
GOLDTHWAITE, TX 76844-0450
Phone 325-648-3186
CITY MANAGER

Airport Operational Statistics

Aircraft based on the field: 9
Single engine airplanes: 9
    
Aircraft operations: avg 52/week *
67% local general aviation
33% transient general aviation
* for 12-month period ending 13 September 2017

Additional Remarks

RWY 01 HAS 4 FT FENCE AND ISOLATED + 18 FT TREES 400-475 FT FM THLD ACROSS APCH.
DEER ON & INVOF ARPT.

Instrument Procedures

There are no published instrument procedures at T37.

Some nearby airports with instrument procedures:

KMNZ - Hamilton Municipal Airport (27 nm NE)
KBWD - Brownwood Regional Airport (28 nm NW)
KLZZ - Lampasas Airport (29 nm SE)
KMKN - Comanche County-City Airport (29 nm N)
KAQO - Llano Municipal Airport (39 nm S)
 
Loc | Ops | Rwys | IFR | FBO | Links
Com | Nav | Svcs | Stats | Notes
Aerial photo
WARNING: Photo may not be current or correct
Aerial photo of T37 (Goldthwaite Municipal Airport)
Photo taken 20-Sep-2010

Do you have a better or more recent aerial photo of Goldthwaite Municipal Airport that you would like to share? If so, please send us your photo.

 
Sectional chart

 
Airport distance calculator
Flying to Goldthwaite Municipal Airport? Find the distance to fly.

From to T37

Sunrise and sunset
Times for 19-May-2019
 Local
(UTC-5)
 Zulu
(UTC)
Morning civil twilight06:1011:10
Sunrise06:3711:37
Sunset20:2501:25
Evening civil twilight20:5201:52

Current date and time
Zulu (UTC)  19-May-2019 13:23:54
Local (UTC-5)  19-May-2019 08:23:54
 
METAR
KMNZ 
27nm NE 
191255Z AUTO 32006KT 5SM BR BKN004 20/20 A2990 RMK AO2 T01970197
KBWD 
28nm NW 
191255Z AUTO 33004KT 10SM CLR 14/14 A2992 RMK AO1
KLZZ 
29nm SE 
191255Z AUTO 00000KT 3SM BR BKN010 22/21 A2986 RMK AO2 T02170212
KMKN 
29nm N 
191255Z AUTO 31006KT 10SM CLR 15/11 A2991 RMK AO2 T01540106
KAQO 
39nm S 
191250Z AUTO 00000KT 2SM BR OVC012 21/21 A2990 RMK AO2
KBBD 
40nm W 
191255Z AUTO 32006KT 10SM CLR 16/13 A2991 RMK AO2
KGOP 
42nm E 
191255Z AUTO 00000KT 5SM BR FEW015 24/22 A2987 RMK AO2
KGRK 
45nm SE 
191258Z AUTO 00000KT 10SM CLR 24/22 A2984 RMK AO2 SLP095 T02410218
KBMQ 
46nm SE 
191253Z AUTO 22003KT 5SM HZ OVC013 24/21 A2988 RMK AO2 SLP101 T02390211
KCOM 
48nm NW 
191255Z AUTO 36005KT 10SM CLR 16/08 A2994 RMK AO2 T01550081
TAF
KBBD 
40nm W 
191120Z 1912/2012 19005KT P6SM SKC TEMPO 1912/1914 1SM BR BKN004 FM200000 10008KT P6SM FEW250 FM200900 13011KT P6SM OVC015
KGRK 
45nm SE 
191003Z 1910/2014 19009KT 8000 BR BKN015 QNH2971INS TEMPO 1910/1914 4800 BR BKN007 BECMG 1914/1915 22006KT 9999 NSW SCT020 QNH2984INS BECMG 1920/1921 13012KT 9999 FEW080 QNH2979INS BECMG 2002/2003 15012KT 9999 SCT015 BKN040 QNH2982INS BECMG 2006/2007 16012KT 8000 BR BKN007 OVC015 510102 QNH2986INS TX30/1922Z TN23/1912Z
NOTAMs
Click for the latest NOTAMs
NOTAMs are issued by the DoD/FAA and will open in a separate window not controlled by AirNav.

 

 
 

Would you like to see your business listed on this page?

 If your business provides an interesting product or service to pilots, flight crews, aircraft, or users of the Goldthwaite Municipal Airport, you should consider listing it here.  To start the listing process, click on the button below
 
Add a business
 

Other Pages about Goldthwaite Municipal Airport

Update a link
 
Copyright © AirNav, LLC. All rights reserved. Privacy Policy  Contact